YZ-1 R/B (43708 NORAD) Tracking and Keplerian Element Data

This shows tracking and keplerian element data for the satellite.

Feedback or suggestion? Click here.




ElementValue
Catalog43708
NameYZ-1 R/B
Epoch Orbit49
Epoch Day350.54035421
Epoch Year2018
RAAN275.9567
Inclination55.0833
Eccentricity0.0112006
Argument of Perigee11.4006
Mean Anonmoly348.8747
Mean Motion1.77347387
Decay Rate-2.3E-07
L11 43708U 18093C 18350.54035421 -.00000023 00000-0 00000+0 0 9999
L22 43708 55.0833 275.9567 0112006 11.4006 348.8747 1.77347387 492

Live tracking and technical data element details for YZ-1 R/B (NORAD 43708). YZ-1 R/B can be tracked NOW for your location showing map with azimuth and elevation plus other details from your city location.

Track the satellite on the map from your city or location and see movement details for azimuth, elevation, latitude, longitude, range, height, and movement on the map or in text.







IsCatalogInMostPopularTable: catalog: 43708, numindb: 98
Update: records affected: 1



GetName: 43708 YZ-1 R/B

Hit Count: updated at: Mon, 22 Jul 2019 16:16:41 GMT